Location: Unspecified
(58.7730°N, 5.8460°E)
Time: 20:41:35
(UTC+02:00)

Resurs 1-4 Rocket - Visible Passes

Search period start: 29 September 2016 00:00
Search period end: 09 October 2016 00:00
Orbit: 800 x 814 km, 98.4° (Epoch: 27 September)

Date Brightness Start Highest point End Pass type
(mag) Time Alt. Az. Time Alt. Az. Time Alt. Az.
29 Sep 4.4 02:54:26 10° NE 02:57:48 17° E 02:59:55 14° ESE visible
29 Sep 2.3 04:33:18 10° NNE 04:38:39 71° ESE 04:41:00 34° S visible
29 Sep 3.0 06:13:33 10° N 06:18:11 31° NW 06:22:05 14° WSW visible
30 Sep 4.7 02:31:12 10° ENE 02:32:48 11° ENE 02:34:24 10° E visible
30 Sep 2.8 04:08:48 10° NNE 04:13:59 49° E 04:16:02 33° SSE visible
30 Sep 2.6 05:48:50 10° N 05:53:50 42° WNW 05:57:07 20° WSW visible
01 Oct 3.4 03:44:23 10° NNE 03:49:15 35° E 03:51:05 27° SE visible
01 Oct 2.2 05:24:10 10° NNE 05:29:24 58° WNW 05:32:10 27° SW visible
02 Oct 3.9 03:20:06 10° NE 03:24:26 24° E 03:26:08 21° ESE visible
02 Oct 2.0 04:59:32 10° NNE 05:04:54 81° WNW 05:07:12 36° SSW visible
02 Oct 3.4 06:40:01 10° N 06:44:08 23° NW 06:48:15 10° W visible
03 Oct 4.3 02:56:04 10° NE 02:59:31 17° E 03:01:10 15° ESE visible
03 Oct 2.2 04:34:58 10° NNE 04:40:20 73° ESE 04:42:14 41° S visible
03 Oct 3.0 06:15:15 10° N 06:19:51 30° NW 06:23:19 16° WSW visible
04 Oct 4.7 02:32:40 10° ENE 02:34:31 12° ENE 02:36:13 10° E visible
04 Oct 2.8 04:10:28 10° NNE 04:15:41 51° E 04:17:17 38° SSE visible
04 Oct 2.6 05:50:32 10° N 05:55:30 41° WNW 05:58:21 23° WSW visible
05 Oct 3.3 03:46:03 10° NNE 03:50:57 36° E 03:52:19 31° SE visible
05 Oct 2.2 05:25:51 10° NNE 05:31:05 56° WNW 05:33:24 32° SW visible
05 Oct 3.7 07:06:32 10° N 07:10:00 18° NW 07:13:27 10° W visible
06 Oct 3.8 03:21:45 10° NE 03:26:08 25° E 03:27:22 23° ESE visible
06 Oct 2.0 05:01:14 10° NNE 05:06:35 79° WNW 05:08:26 42° SSW visible
06 Oct 3.4 06:41:42 10° N 06:45:47 23° NW 06:49:31 11° W visible
07 Oct 4.3 02:57:41 10° NE 03:01:14 18° E 03:02:24 17° E visible
07 Oct 2.2 04:36:39 10° NNE 04:42:01 75° ESE 04:43:28 49° S visible
07 Oct 3.1 06:16:56 10° N 06:21:30 30° NW 06:24:33 18° W visible
08 Oct 4.6 02:34:11 10° NE 02:36:15 12° ENE 02:37:26 11° E visible
08 Oct 2.7 04:12:08 10° NNE 04:17:23 52° E 04:18:31 44° SE visible
08 Oct 2.7 05:52:13 10° N 05:57:10 40° WNW 05:59:35 26° WSW visible
